Weather History for KNSE - March, 2013

Change the Weather History Date:

Wednesday, March 20, 2013

  Actual Average Record
Temperature  
Mean Temperature 54 °F -  
Max Temperature 66 °F 69 °F 84 °F (2011)
Min Temperature 37 °F 49 °F 37 °F (2013)
Degree Days  
Heating Degree Days 12    
Growing Degree Days 4 (Base 50)    
Moisture  
Dew Point 31 °F    
Average Humidity 38    
Maximum Humidity 79    
Minimum Humidity 24    
Precipitation  
Precipitation 0.00 in - - ()
Sea Level Pressure  
Sea Level Pressure 30.00 in    
Wind  
Wind Speed 7 mph (North)    
Max Wind Speed 15 mph    
Max Gust Speed -    
Visibility 9 miles    
Events      
Averages and records for this station are not official NWS values.
T = Trace of Precipitation, MM = Missing Value Source: NWS Daily Summary

Daily Weather History Graph

Daily Weather History Graph

Search for Another Location

Airport or City:

Trip Planner

Search our weather history database for the weather conditions in past years. The results will help you decide how hot, cold, wet, or windy it might be!

Date:

Astronomy

Mar. 20, 2013 Rise Set
Actual Time 6:51 AM CDT 6:59 PM CDT
Civil Twilight 6:27 AM CDT 7:23 PM CDT
Nautical Twilight 5:59 AM CDT 7:51 PM CDT
Astronomical Twilight 5:31 AM CDT 8:20 PM CDT
Moon 12:55 PM CDT (3/20) 2:09 AM CDT (3/20)
Length of Visible Light 12h 56m
Length of Day
12h 08m
First Quarter, 59% of the Moon is Illuminated
Mar 20
First Quarter
Mar 27
Full
Apr 2
Last Quarter
Apr 10
New
Apr 18
First Quarter

Hourly Weather History & Observations

Time (CDT) Temp. Windchill Dew Point Humidity Pressure Visibility Wind Dir Wind Speed Gust Speed Precip Events Conditions
12:56 AM 59.0 °F - 33.1 °F 38% 29.96 in 10.0 mi NNE 6.9 mph - N/A   Mostly Cloudy
1:56 AM 59.0 °F - 30.9 °F 35% 29.95 in 10.0 mi NE 8.1 mph - N/A   Clear
2:56 AM 57.9 °F - 30.0 °F 35% 29.94 in 10.0 mi NE 6.9 mph - N/A   Clear
3:56 AM 57.0 °F - 30.0 °F 36% 29.94 in 10.0 mi NNE 5.8 mph - N/A   Scattered Clouds
4:56 AM 55.9 °F - 30.9 °F 39% 29.96 in 10.0 mi NNE 6.9 mph - N/A   Partly Cloudy
5:56 AM 55.0 °F - 32.0 °F 42% 30.00 in 10.0 mi NNE 5.8 mph - N/A   Overcast
6:56 AM 54.0 °F - 32.0 °F 43% 30.04 in 10.0 mi NNE 8.1 mph - N/A   Overcast
7:56 AM 54.0 °F - 30.0 °F 40% 30.05 in 10.0 mi NE 8.1 mph - N/A   Overcast
8:56 AM 55.9 °F - 30.0 °F 37% 30.06 in 10.0 mi North 10.4 mph - N/A   Mostly Cloudy
9:56 AM 57.0 °F - 30.9 °F 37% 30.06 in 10.0 mi North 12.7 mph - N/A   Mostly Cloudy
10:56 AM 59.0 °F - 30.0 °F 33% 30.04 in 10.0 mi East 4.6 mph - N/A   Mostly Cloudy
11:56 AM 61.0 °F - 30.9 °F 32% 30.04 in 10.0 mi NE 3.5 mph - N/A   Mostly Cloudy
12:56 PM 61.0 °F - 32.0 °F 34% 30.03 in 5.0 mi North 4.6 mph - N/A   Smoke
1:08 PM 60.8 °F - 33.8 °F 36% 30.07 in 1.0 mi North 5.8 mph - N/A   Smoke
1:21 PM 60.8 °F - 32.0 °F 34% 30.05 in 3.0 mi North 4.6 mph - N/A   Smoke
1:56 PM 62.1 °F - 34.0 °F 35% 30.02 in 4.0 mi NNW 5.8 mph - N/A   Smoke
2:41 PM 62.6 °F - 32.0 °F 32% 30.04 in 10.0 mi Variable 5.8 mph - N/A   Mostly Cloudy
2:56 PM 62.1 °F - 30.9 °F 31% 30.00 in 10.0 mi North 12.7 mph - N/A   Mostly Cloudy
3:56 PM 64.0 °F - 28.0 °F 26% 29.98 in 10.0 mi NNE 11.5 mph - N/A   Scattered Clouds
4:56 PM 64.9 °F - 28.9 °F 26% 29.96 in 10.0 mi North 15.0 mph - N/A   Scattered Clouds
5:56 PM 63.0 °F - 25.0 °F 24% 29.95 in 10.0 mi NNW 13.8 mph - N/A   Partly Cloudy
6:56 PM 59.0 °F - 27.0 °F 29% 29.95 in 10.0 mi NNW 11.5 mph - N/A   Clear
7:56 PM 53.1 °F - 28.0 °F 38% 29.97 in 10.0 mi NNW 8.1 mph - N/A   Clear
8:56 PM 50.0 °F - 28.9 °F 44% 29.99 in 10.0 mi NW 3.5 mph - N/A   Clear
9:56 PM 48.0 °F - 28.9 °F 48% 29.99 in 10.0 mi WNW 3.5 mph - N/A   Clear
10:56 PM 43.0 °F - 33.1 °F 68% 29.99 in 10.0 mi Calm Calm - N/A   Clear
11:56 PM 37.9 °F 35.5 °F 32.0 °F 79% 29.98 in 10.0 mi NNW 3.5 mph - N/A   Clear